Location: Agendoh
(31.0664°N, 8.9343°W)
Time: 08:57:40
(UTC+00:00)

Lacrosse 5 - Pass Details

Date: 30 June 2022
Orbit: 714 x 724 km, 57.0° (Epoch: 09 March)

Event Time Altitude Azimuth Distance (km) Brightness Sun altitude
Rises 23:55:36 0° 311° (NW) 3,134 5.8 -34.8°
Reaches altitude 10° 23:58:11 10° 301° (WNW) 2,209 4.8 -34.9°
Enters shadow 23:59:19 16° 294° (WNW) 1,844 4.3 -35.0°
